Погода в Ческа-Скалице

Чехия     50°23′40″N   16°02′32″E
темп.,
°C
ветер,
м/с
пор.,
м/с
влажн.,
%
обл.,
%
осадки,
мм/ч
давл.,
гПа
погр.,
м
18 октября, пн
пн1823:00+5зсз1181100 0.0 102310
02:00+6юз0076100 0.0 102412
05:00+6юз0077100 0.1 102411
08:00+6ю1183100 0.3 102523
11:00+7ююз1181100 0.1 1027140
14:00+9юз237599 0.1 1026434
17:00+9ююз237698 0.0 1026117
20:00+6ююз1185100 0.0 102810
19 октября, вт
вт1923:00+6ю118592 0.0 102810
02:00+5ююв1187100 0.0 102810
05:00+5ю1189100 0.0 102711
08:00+5ю1187100 0.0 102727
11:00+10ююз246798 0.0 1026372
14:00+13ююз5656100 0.0 1024646
17:00+11юз3664100 0.0 1023156
20:00+9ююз3675100 0.0 1023108
20 октября, ср
ср2023:00+10ююз3973100 0.0 1022329
02:00+9ююз41094100 1.3 1021433
05:00+9ююз3797100 0.1 1020327
08:00+9ююз2797100 0.1 1019225
11:00+13ююз487784 0.0 1018433
14:00+17ююз61060100 0.0 1015800
17:00+15ю61166100 0.0 1013469
20:00+12ю4126988 0.0 1012346
21 октября, чт
чт2123:00+10ююв387438 0.0 1012196
02:00+9ю3107737 0.0 1010265
05:00+9ю4107988 0.0 1007313
08:00+9ю51292100 1.8 1008492
11:00+14юз10197885 0.3 10061733
14:00+14зюз11196098 0.3 10061793
17:00+12зюз8146090 0.0 10071187
20:00+10юз614731 0.0 1008572
22 октября, пт
пт2223:00+9юз5148027 0.0 1009480
02:00+8юз3128525 0.0 1007344
05:00+9юз5138688 0.0 1006508
08:00+8юз61296100 0.1 1005627
11:00+9ююз51289100 0.4 1006995
14:00+11зюз8117789 0.8 10051092
17:00+9з51076100 0.3 1007784
20:00+7з51179100 0.3 1010616